WetterOnline ( https://www.wetteronline.de )

Wetter aktuell Dvur Kralove nad Labem

Aktuelles Wetter: Pardubice (230m)

6-stündlich | Neueste Meldungen
Ortszeit Temperatur Wetter
Di, 14.07. 14:00 22.4° C fast wolkenlos
Di, 14.07. 8:00 14.0° C leicht bewölkt
Di, 14.07. 2:00 10.5° C wolkenlos
Mo, 13.07. 20:00 19.5° C leicht bewölkt
Mo, 13.07. 14:00 19.6° C wolkig
Mo, 13.07. 8:00 13.0° C fast wolkenlos
Mo, 13.07. 2:00 9.5° C leicht bewölkt
So, 12.07. 20:00 19.0° C leicht bewölkt
Ortszeit Temperatur Wetter
Di, 14.07. 16:30 24° C -
Di, 14.07. 16:00 23.8° C leicht bewölkt
Di, 14.07. 15:30 23° C -
Di, 14.07. 15:00 23.1° C fast wolkenlos
Di, 14.07. 14:30 23° C -
Di, 14.07. 14:00 22.4° C fast wolkenlos
Di, 14.07. 13:30 22° C -
Di, 14.07. 13:00 21.9° C fast wolkenlos
Ortszeit Relative Feuchte Sichtweite
Di, 14.07. 14:00 43% 20 km
Di, 14.07. 8:00 77% 20 km
Di, 14.07. 2:00 87% 20 km
Mo, 13.07. 20:00 50% 20 km
Mo, 13.07. 14:00 43% 20 km
Mo, 13.07. 8:00 84% 20 km
Mo, 13.07. 2:00 93% 20 km
So, 12.07. 20:00 51% 20 km
Ortszeit Relative Feuchte Sichtweite
Di, 14.07. 16:30 39% >10 km
Di, 14.07. 16:00 38% 20 km
Di, 14.07. 15:30 38% >10 km
Di, 14.07. 15:00 38% 20 km
Di, 14.07. 14:30 41% >10 km
Di, 14.07. 14:00 43% 20 km
Di, 14.07. 13:30 43% >10 km
Di, 14.07. 13:00 40% 20 km
Ortszeit Niederschlagsmenge Niederschlagsart
Di, 14.07. 14:00 0.0 l/m2 in 6 Std. -
Di, 14.07. 8:00 0.0 l/m2 in 12 Std. -
Di, 14.07. 2:00 0.0 l/m2 in 6 Std. -
Mo, 13.07. 20:00 0.0 l/m2 in 12 Std. -
Mo, 13.07. 14:00 0.0 l/m2 in 6 Std. -
Mo, 13.07. 8:00 0.0 l/m2 in 12 Std. -
Mo, 13.07. 2:00 0.0 l/m2 in 6 Std. -
So, 12.07. 20:00 0.0 l/m2 in 12 Std. -
Ortszeit Niederschlagsmenge Niederschlagsart
Di, 14.07. 16:30 keine Meldung -
Di, 14.07. 16:00 0.0 l/m2 in 1 Std. -
Di, 14.07. 15:30 keine Meldung -
Di, 14.07. 15:00 0.0 l/m2 in 1 Std. -
Di, 14.07. 14:30 keine Meldung -
Di, 14.07. 14:00 0.0 l/m2 in 1 Std. -
Di, 14.07. 13:30 keine Meldung -
Di, 14.07. 13:00 0.0 l/m2 in 1 Std. -
Ortszeit Stärke Spitze Richtung
km/h Bft. km/h Grad Sektor
Di, 14.07. 14:00 14 3 - 80° O
Di, 14.07. 8:00 4 1 - 100° O
Di, 14.07. 2:00 4 1 - 60° NO
Mo, 13.07. 20:00 7 2 - 130° SO
Mo, 13.07. 14:00 7 2 - 330° NW
Mo, 13.07. 8:00 4 1 - 160° S
Mo, 13.07. 2:00 4 1 - 50° NO
So, 12.07. 20:00 4 1 - 320° NW
Ortszeit Stärke Spitze Richtung
km/h Bft. km/h Grad Sektor
Di, 14.07. 16:30 7 2 - 100° O
Di, 14.07. 16:00 11 2 - 80° O
Di, 14.07. 15:30 13 3 - 100° O
Di, 14.07. 15:00 7 2 - 110° O
Di, 14.07. 14:30 9 2 - 120° SO
Di, 14.07. 14:00 14 3 - 80° O
Di, 14.07. 13:30 7 2 - 70° O
Di, 14.07. 13:00 7 2 - 130° SO
Ortszeit Untergrenze Bedeckung Gattung
total tief tief mittel hoch
Di, 14.07. 14:00 1500 m 1/8 1/8 Sc - Ci
Di, 14.07. 8:00 6900 m 3/8 0/8 - - Ci
Di, 14.07. 2:00 - 0/8 0/8 - - -
Mo, 13.07. 20:00 1800 m 2/8 2/8 Sc - Ci
Mo, 13.07. 14:00 1500 m 6/8 6/8 Cu - -
Mo, 13.07. 8:00 2400 m 1/8 1/8 - Ac -
Mo, 13.07. 2:00 6900 m 4/8 0/8 - - Ci
So, 12.07. 20:00 1500 m 3/8 1/8 Cu Ac -
Ortszeit Bedeckungsgrad in Achtel und Wolkenuntergrenze
Di, 14.07. 16:30 keine Wolken(unter 1500 m)
Di, 14.07. 16:00 3(1800m)
Di, 14.07. 15:30 keine Wolken(unter 1500 m)
Di, 14.07. 15:00 1(1800m)
Di, 14.07. 14:30 keine Wolken(unter 1500 m)
Di, 14.07. 14:00 1(1500m)
Di, 14.07. 13:30 keine Wolken(unter 1500 m)
Di, 14.07. 13:00 1(1500m)
Ortszeit Luftdruck NN (hPa) Tendenz (hPa in 3 Std.)
Di, 14.07. 14:00 1015 - 2,3
Di, 14.07. 8:00 1020 - 0,3
Di, 14.07. 2:00 1021 - 0,5
Mo, 13.07. 20:00 1021 - 1,0
Mo, 13.07. 14:00 1023 - 1,2
Mo, 13.07. 8:00 1026 + 0,1
Mo, 13.07. 2:00 1026 - 0,2
So, 12.07. 20:00 1025 - 0,1
Ortszeit Luftdruck NN (hPa) Tendenz (hPa in 3 Std.)
Di, 14.07. 16:30 1015 keine Meldung
Di, 14.07. 16:00 1014 - 2,0
Di, 14.07. 15:30 1015 keine Meldung
Di, 14.07. 15:00 1015 - 2,1
Di, 14.07. 14:30 1016 keine Meldung
Di, 14.07. 14:00 1015 - 2,3
Di, 14.07. 13:30 1016 keine Meldung
Di, 14.07. 13:00 1016 - 1,8
Ortszeit Schneehöhe (cm)
Di, 14.07. 14:00 -
Di, 14.07. 8:00 -
Di, 14.07. 2:00 -
Mo, 13.07. 20:00 -
Mo, 13.07. 14:00 -
Mo, 13.07. 8:00 -
Mo, 13.07. 2:00 -
So, 12.07. 20:00 0
Ortszeit Schneehöhe (cm)
Di, 14.07. 16:30 -
Di, 14.07. 16:00 -
Di, 14.07. 15:30 -
Di, 14.07. 15:00 -
Di, 14.07. 14:30 -
Di, 14.07. 14:00 -
Di, 14.07. 13:30 -
Di, 14.07. 13:00 -
Link zu dieser Seite / Seite empfehlen

Das Wetter in ...